STARLINK-35751, 66208

Orbit data source: Space-Track

STARLINK-35751, 66208 is a payload satellite owned by SpaceX/Seattle (US) in LEO that was launched on Tue, 28 Oct 2025 UTC via an FALCON 9 launch vehicle from the Air Force Western Test Range (AFWTR). Payload-class satellites include a variety of spacecraft equipped with specific instruments for various scientific and technological missions. These include communications satellites like Starlink; space stations such as the ISS; scientific satellites like the Hubble; Earth observation satellites from companies like Planet Labs, Umbra, and HawkEye 360; GPS; miniature CubeSats for education and research; and military/defense satellites.

Loading next visibility...
Identifier
66208, 2025-244C
Orbit
LEO
Country
Flag of USUS
Related business
Manufacturer
SpaceX/Seattle
Mission
Operational Commercial Communications
Bus & Motor
STARLINK V2MO, Unknown motor
Mass
575 kg wet, ~530 kg dry
Launch date (UTC)
2025-10-28 (8 months ago)
Launch vehicle
FALCON 9
Launch site
Air Force Western Test Range (AFWTR)
Object type
Payload
Rocket body
Debris
Shape & HBR
Box + 2 Pan, 17.7 m
Radar Cross Section
36.964 m², Large (>1 m²)

Expand to show TLE details & history
Last TLE update: 2 days ago

TLE from 2 days ago
0 STARLINK-35751
1 66208U 25244C   26170.09664996  .00028219  00000-0  84291-3 0  9993
2 66208  53.1599 118.3053 0001269 119.4517 240.6613 15.34409900 37190
Epoch: 2026-06-19T02:19Z
TLE epoch observation values (Epoch: 2026-06-19T02:19:10.556Z)
Latitude
0.00003°
Longitude
176.18081°
Altitude
464.001 km
Speed
7.635 km/s
True Right ascension
07h 53m 13s
True Declination
0° 00' 00"
Sunlit
Object was in daylight at epoch
Visualization orbit readout
Latitude
Unknown
Longitude
Unknown
Altitude
Unknown
Speed
Unknown
Apparent Right ascension
Unknown
Apparent Declination
Unknown
Sunlit
N/A
Visualization observer readout
Local Sidereal Time
07:18:01
Azimuth
Unknown
Elevation
Unknown
Doppler factor
Unknown
Orbital elements
Apogee altitude
463.799 km
Perigee altitude
462.063 km
Semi-major axis
6,841.068 km
Eccentricity
0.00013
Inclination
53.1599°
RAAN
118.3053°
Arg. of periapsis
119.4517°
True anomaly
240.64862°
Mean anomaly
240.6613°
Eccentric anomaly
240.65496°
Mean motion
3.83581 °/min
Orbital period
93.85 mins
BSTAR
0.00084291
Loading maneuver chart data...
Computing Atmospheric mass density...
Loading historical data...
Loading historical data...
Loading historical data...
Loading historical data...
Loading historical data...
Loading historical data...
Loading historical data...

Documentation

Showing up to 5 results
|